Terug naar catalogus

COSMOS 2301

ActiefMilitairPO
NORAD 23443·PAYLOAD·🇷🇺 Russia

Gelanceerd Dec 26, 1994 vanaf Plesetsk Cosmodrome

Loading…

Volgende Passages (komende 24 uur)

TLE

VersSource: Space-Track

Epoch: Sep 14, 2026, 00:46 UTC

1 23443U 94086C   26257.03235554  .00000006  00000-0 -25373-4 0  9993
2 23443  82.5666 264.0679 0001230 356.7187  30.3791 12.62228945461115

Volg COSMOS 2301 in realtime met AllMySat

Download on the App Store